www.pogodaiklimat.ru

Погода и климат >> Архив погоды >> Россия >> Волгоградская область >> Даниловка


ПОГОДА в Даниловке

  • Прогноз погоды в Даниловке
  • Монитор погоды в Даниловке

АРХИВ ПОГОДЫ в Даниловке

Время (UTC), дата Ветер
(напр.,м/с)
 
Видим.   Явления Облачность Т
(С)
Тd
(С)
f
(%)
Тe
(С)
Тes
(С)
Комфортность P
(гПа)
Po
(гПа)
Тmin
(С)
Tmax
(С)
R
(мм)
R24
(мм)
S
(см)
00 18.08 СВ 1 20 км 1/0
[Ci fib]
+16.7 +11.2 70 +18 +18 1010.6 998.5
03 18.08 СЗ 1 20 км 3/0
[Ac trans Ci fib]
+16.2 +12.2 77 +17 +17 1011.0 998.9 +15.2
06 18.08 В 1 20 км 8/6 600 м
[Sc Ac trans]
+26.5 +14.9 49 +29 +32 жарко 1011.5 999.8
09 18.08 Ю 4 20 км 9/5 600 м
[Cu med, cong Ac trans Ci fib]
+30.8 +10.4 28 +31 +33 жарко 1011.3 999.8
12 18.08 Ю 5-10
{10}
20 км 9/3 600 м
[Cb calv Ac trans Ci fib]
+33.7 +2.4 14 +31 +32 жарко 1010.9 999.5
15 18.08 Ю 3
{10}
20 км 10/10 600 м
[Cb calv]
+30.2 +4.3 19 +28 +28 жарко 1011.6 1000.1 +34.1
18 18.08 В 1
{16}
20 км {ливн. осадки} 10/10 600 м
[Cb calv]
+22.7 +14.4 59 +26 +26 жарко 1013.4 1001.6
21 18.08 СВ 1 20 км 10/0
[Ac trans Cs]
+19.6 +15.4 77 +23 +23 комфорт 1014.3 1002.3
00 19.08 СВ 2 20 км ясно +17.4 +13.5 78 +18 +18 1014.6 1002.5
03 19.08 СВ 1 20 км 10/5 600 м
[Sc Ac trans Cs]
+16.0 +12.4 79 +17 +17 1015.9 1003.7 +15.6
06 19.08 В 1 20 км 3/0
[Ci sp]
+27.5 +11.9 38 +29 +37 жарко 1015.8 1004.1
09 19.08 Ю 2 20 км 3/1 600 м
[Cu hum Ac trans Ci fib]
+33.6 +8.7 22 +32 +43 жарко 1015.4 1003.9
12 19.08 Ю 1 20 км 6/4 600 м
[Sc Ac trans Ci fib]
+32.9 +7.4 21 +31 +36 жарко 1015.7 1004.2
15 19.08 С 1 20 км 5/3 600 м
[Sc Ac trans Ci fib]
+30.2 +10.3 29 +30 +31 жарко 1015.9 1004.3 +35.1
18 19.08 С 1 20 км 4/3 600 м
[Sc Ac trans]
+22.6 +11.3 49 +25 +25 комфорт 1017.2 1005.3
21 19.08 С 2 20 км ясно +17.9 +11.2 65 +18 +18 1017.2 1005.1
00 20.08 В 1 20 км 1/0
[Ac trans]
+15.7 +11.8 78 +16 +16 1017.3 1005.1
03 20.08 штиль 0 20 км ясно +15.9 +11.9 77 +16 +16 1017.8 1005.7 +14.1
06 20.08 штиль 0 20 км ясно +27.5 +12.3 39 +29 +39 жарко 1017.8 1006.1
09 20.08 Ю 2 20 км 3/0
[Ac trans]
+34.2 +13.1 28 +35 +46 очень
жарко
1017.1 1005.7
12 20.08 СЗ 2 20 км 3/3 600 м
[Sc Ac trans]
+34.2 +12.3 27 +34 +40 очень
жарко
1016.7 1005.2
15 20.08 СЗ 3 20 км ясно +31.1 +15.1 38 +33 +34 душно 1017.2 1005.7 +34.9
18 20.08 С 3 20 км ясно +24.5 +15.9 59 +28 +28 душно 1018.9 1007.1
21 20.08 СЗ 1 20 км 10/0
[Cs]
+21.4 +14.8 66 +24 +24 комфорт 1019.4 1007.5
00 21.08 С 2 20 км 10/0
[Cs]
+17.5 +14.2 81 +18 +18 1019.8 1007.7
03 21.08 СЗ 1 20 км ясно +16.7 +14.3 86 +18 +18 1020.4 1008.2 +15.9
06 21.08 С 3 20 км ясно +25.2 +16.3 58 +29 +35 душно 1020.2 1008.4
09 21.08 СВ 3 20 км ясно +30.9 +14.9 38 +33 +44 душно 1019.2 1007.6
12 21.08 С 4 20 км ясно +33.1 +11.5 27 +33 +38 жарко 1018.1 1006.6
15 21.08 СВ 3 20 км ясно +31.0 +12.7 33 +32 +32 жарко 1018.2 1006.6 +33.3
18 21.08 С 1 20 км ясно +23.1 +14.2 57 +27 +27 душно 1019.6 1007.7
21 21.08 СВ 1 20 км ясно +17.5 +13.8 79 +19 +19 1020.3 1008.2
00 22.08 СВ 1 20 км ясно +17.8 +13.3 75 +19 +19 1019.9 1007.8
03 22.08 штиль 0 20 км ясно +16.1 +12.9 81 +16 +16 1020.3 1008.1 +15.1
06 22.08 В 3 20 км ясно +25.2 +14.8 52 +28 +34 жарко 1019.8 1008.0
09 22.08 В 3 20 км ясно +30.2 +12.6 34 +31 +42 жарко 1018.8 1007.2
12 22.08 В 3 20 км ясно +32.3 +11.1 27 +32 +39 жарко 1018.0 1006.5
15 22.08 В 2 20 км ясно +30.7 +10.9 29 +31 +31 жарко 1017.8 1006.2 +32.4
18 22.08 СВ 1 20 км ясно +22.3 +11.9 52 +25 +25 комфорт 1019.0 1007.1
21 22.08 штиль 0 20 км ясно +16.2 +11.9 76 +16 +16 1019.6 1007.4
00 23.08 штиль 0 20 км ясно +14.0 +11.6 85 +14 +14 1019.7 1007.4
03 23.08 штиль 0 20 км ясно +15.3 +12.5 83 +15 +16 1020.2 1008.0 +13.5
06 23.08 СВ 2 20 км 10/0
[Cs]
+26.8 +13.7 44 +29 +35 жарко 1020.2 1008.4
09 23.08 СВ 2 20 км 10/0
[Cs]
+30.9 +10.2 28 +31 +41 жарко 1019.6 1008.0
12 23.08 СВ 3 20 км 10/0
[Cs]
+32.2 +9.7 25 +32 +37 жарко 1018.8 1007.3
15 23.08 СВ 2 20 км 10/3 600 м
[Cu hum Cs]
+30.8 +11.0 30 +31 +31 жарко 1018.8 1007.2 +32.8
18 23.08 СВ 1 20 км 10/0
[Ac trans Cs]
+23.1 +12.2 50 +26 +26 жарко 1020.0 1008.0
21 23.08 СВ 2 20 км 10/0
[Cs]
+21.4 +12.2 56 +24 +24 комфорт 1020.1 1008.1
00 24.08 СВ 2 20 км 10/0
[Cs]
+20.9 +15.8 73 +25 +25 комфорт 1020.6 1008.6
03 24.08 СВ 2 20 км 10/0
[Cs]
+18.9 +14.3 75 +21 +21 комфорт 1021.2 1009.1 +18.4
06 24.08 СВ 3 20 км 10/0
[Ac trans Cs]
+24.7 +13.2 49 +27 +31 жарко 1021.4 1009.5
09 24.08 СВ 4 20 км 10/0
[Cs]
+30.0 +11.8 33 +31 +38 жарко 1020.2 1008.6
12 24.08 СВ 4
{10}
20 км 5/5 600 м
[Cu hum]
+31.2 +11.4 30 +32 +34 жарко 1019.4 1007.8
15 24.08 СВ 3 20 км 8/4 600 м
[Cb calv Ci fib]
+29.5 +11.3 32 +30 +30 жарко 1019.4 1007.7 +31.7
18 24.08 СВ 1 20 км ясно +22.0 +12.7 56 +25 +25 комфорт 1020.5 1008.5
21 24.08 С 1 20 км 10/0
[Cs]
+16.6 +11.4 71 +17 +17 1020.7 1008.5

 

Местоположение метеостанции Даниловка (Волгоградская область, Россия): широта 50.37 долгота 44.12 высота над уровнем моря 102 м.

В архиве по умолчанию представлена погода в Даниловке за последнюю неделю. Архивные данные за месяц целиком и за предыдущие месяцы, начиная с января 2011 года, Вы можете получить, выбрав интересующий диапазон дат из раскрывающегося списка и нажав кнопку "Ввод!".


*Определитесь, кто Вы:
робот инопланетянин человек

Внимание! Время в таблицах - всемирное. Для получения местного времени необходимо прибавить поправку, которая равна 3 ч.

Смотрите также архив погоды в соседних городах и на ближайших метеорологических станциях:

Погода в Рудне (Волгоградская область, Россия) (60 км)
Погода в Ольховке (Волгоградская область, Россия) (64 км)
Погода в Михайловке (Волгоградская область, Россия) (69 км)
Погода в Елани (Волгоградская область, Россия) (70 км)
Погода в Фролове (Волгоградская область, Россия) (71 км)
Погода в Камышине (Волгоградская область, Россия) (95 км)
Погода в Новоаннинском (Волгоградская область, Россия) (104 км)
Погода в Сплавнухе (Саратовская область, Россия) (118 км)
Погода в Иловле (Волгоградская область, Россия) (119 км)
Погода в Калининске (Саратовская область, Россия) (126 км)

Пояснения к столбцам:

Ветер - указаны скорость ветра в м/с - средняя за 10 мин, порывы в срок и между сроками (в фигурных скобках) и направление, откуда дует ветер: С - северный, СВ - северо-восточный, В - восточный, ЮВ - юго-восточный, Ю - южный, ЮЗ - юго-западный, З - западный, СЗ - северо-западный.
Видимость - горизонтальная дальность видимости в метрах или километрах. При видимости от 1 до 10 км при отсутствии осадков обычно наблюдается дымка, при ухудшении видимости до 1 км и менее - туман. В сухую погоду видимость может ухудшаться дымом, пылью или мглою.
Явления - указаны атмосферные явления, наблюдавшиеся в срок или в последний час перед сроком; фигурными скобками обозначены явления, наблюдавшиеся между сроками (за 1-3 часа до срока); квадратными скобками обозначены град или гололедные отложения с указанием их диаметра в мм.
Облачность - указаны через наклонную черту общая и нижняя облачность в баллах и высота нижней границы облаков в метрах; квадратными скобками обозначены формы облаков: Ci - перистые, Cs - перисто-слоистые, Cc - перисто-кучевые, Ac - высококучевые, As - высокослоистые, Sc - слоисто-кучевые, Ns - слоисто-дождевые, Cu - кучевые, Cb - кучево-дождевые. Подробнее классификацию облаков см. в Атласе облаков (PDF).
T - Температура воздуха - температура, измеренная на высоте 2 м над землей.
Td - Температура точки росы - температура, при понижении до которой содержащийся в воздухе водяной пар достигнет насыщения.
f - Относительная влажность воздуха - влажноcть воздуха, измеренная на высоте 2 м над землей.
Te - Эффективная температура - температура, которую ощущает одетый по сезону человек в тени. Характеристика душности погоды. При расчете учитывается влияние влажности воздуха и скорости ветра на теплоощущения человека.
Tes - Эффективная температура на солнце - температура, которую ощущает человек, с поправкой на солнечный нагрев. Характеристика знойности погоды. Зависит от высоты солнца над горизонтом, облачности и скорости ветра. Ночью, в пасмурную погоду, а также при ветре 12 м/с и более поправка равна нулю.
P - Атмосферное давление - приведенное к уровню моря атмосферное давление.
Po - Атмосферное давление - измеренное на уровне метеостанции атмосферное давление.
Tmin - Минимальная температура - минимум температуры воздуха на высоте 2 м над землей.
Tmax - Максимальная температура - максимум температуры воздуха на высоте 2 м над землей.
R - Количество осадков - Количество выпавших осадков за период времени, мм. При наведении курсора мыши на число - период времени, за который выпало указанное количество осадков.
R24 - Количество осадков - Количество выпавших осадков за 24 часа, мм.
S - Снежный покров - Высота снежного покрова, см. При наведении курсора мыши на число - состояние снежного покрова и степень покрытия местности в баллах.